{"data":{"norad_id":63045,"epoch":"2026-05-25T02:12:03.877920Z","epoch_age_seconds":63140,"freshness":"FRESH","line1":"1 63045U 25034S   26145.09171155  .00017271  00000+0  59378-3 0  9991","line2":"2 63045  53.1591 276.0745 0001202  58.7241 301.3877 15.30206314 70604","mean_motion":15.30206314,"eccentricity":0.0001202,"inclination_deg":53.1591,"raan_deg":276.0745,"arg_perigee_deg":58.7241,"mean_anomaly_deg":301.3877,"bstar":0.00059378,"rev_number":7060,"period_min":94.10495740511,"perigee_km":474.37244636557,"apogee_km":476.01998767094,"semimajor_km":6853.3332170183,"source":"CELESTRAK","updated_at":"2026-05-25T13:38:19.869193Z"}}